Airport Information

KSLE - McNary Field Airport

KSLE 241456Z 36008KT 10SM CLR 13/07 A3009 RMK AO2 SLP188 T01330072 56005


  • General Information

  • Coordinates: N 44°54'34"/ W 123°0'10"
  • Location: N/A
  • Surveyed Elevation: 214 MSL

Operations

Flow Name Active Runways Conditions

Green background denotes normal operations.


Common Frequencies

Callsign Frequency Position Name

More at the Document Center


Charts